Showing default

JILIN-01-06, 43024

Orbit data source: Space-Track

JILIN-01-06, 43024 is a payload satellite owned by Changguang WJ (CN) in SSO that was launched on Tue, 21 Nov 2017 UTC via a CHANG ZHENG 6 launch vehicle from the Taiyaun Space Center, China (TSC). Payload-class satellites include a variety of spacecraft equipped with specific instruments for various scientific and technological missions. These include communications satellites like Starlink; space stations such as the ISS; scientific satellites like the Hubble; Earth observation satellites from companies like Planet Labs, Umbra, and HawkEye 360; GPS; miniature CubeSats for education and research; and military/defense satellites.

Loading next visibility...
Identifier
43024, 2017-074C
Orbit
SSO
Last TLE update
7 hours ago
Origin
Manufacturer
HARB/CIOMP
Mission
Operational Commercial Imaging
Bus & Motor
JL-1, Unknown motor
Mass
95 kg wet, 95 kg dry
Launch date (UTC)
2017-11-21 (8 years ago)
Launch vehicle
CHANG ZHENG 6
Launch site
Taiyaun Space Center, China (TSC)
Object type
Payload
Rocket body
Debris
Shape & HBR
Box + 2 Pan, 0.8 m
Radar Cross Section
2.000 m², Medium (>0.1 m² and < 1m²)

Expand to show TLE details & history

TLE from 7 hours ago
0 JILIN-01-06
1 43024U 17074C   25199.89835759  .00006338  00000-0  23688-3 0  9992
2 43024  97.4782 295.4723 0007218 354.2259   5.8895 15.27687637422849
Epoch: 2025-07-18T21:33Z
TLE epoch observation values (Epoch: 2025-07-18T21:33:38.095Z)
Latitude
-0.00011°
Longitude
35.12037°
Altitude
480.898 km
Speed
7.628 km/s
True Right ascension
19h 41m 53s
True Declination
0° 00' 00"
Sunlit
Object was in full shadow at epoch
Visualization orbit readout
Latitude
14.29638°
Longitude
-142.68037°
Altitude
489.988 km
Speed
7.618 km/s
Apparent Right ascension
06h 48m 21s
Apparent Declination
-12° 15' 48"
Sunlit
Object is in daylight
Visualization observer readout
Local Sidereal Time
17:22:42
Azimuth
319.714° NNW
Elevation
-56.517°
Doppler factor
1
Orbital elements
Apogee altitude
484.635 km
Perigee altitude
474.736 km
Semi-major axis
6,857.823 km
Eccentricity
0.00072
Inclination
97.4782°
RAAN
295.4723°
Arg. of periapsis
354.2259°
True anomaly
5.89799°
Mean anomaly
5.8895°
Eccentric anomaly
5.89375°
Mean motion
3.82176 °/min
Orbital period
94.2 mins
BSTAR
0.00023688
Loading maneuver chart data...
Loading SW <> Apogee altitude chart data...
Loading historical data...
Loading historical data...
Loading historical data...
Loading historical data...
Loading historical data...
Loading historical data...
Loading historical data...
Other satellites on launch #74 in the year 2017 (2017-11-21 UTC)
|